Regional Weather Roundup
Issued by NWS

Home | Current Version | Previous Version | Graphics & Text | Print | Product List | Glossary On
Versions: 1 2 3 4 5 6 7 8 9 10 11 12 13 14 15 16 17 18 19 20 21 22 23 24 25 26 27 28
000
ASUS45 KSLC 261410
RWRUT

UTAH REGIONAL WEATHER ROUNDUP
NATIONAL WEATHER SERVICE SALT LAKE CITY UT
800 AM MDT WED APR 26 2017

UTZ001>011-023>025-261500-

NORTHERN UTAH

CITY           SKY/WX    TMP DP  RH WIND       PRES   REMARKS
BRIGHAM CITY   CLOUDY    47  33  56 S3        29.90R
HILL AFB       CLOUDY    45  33  65 S7        29.90S
LOGAN          CLOUDY    44  38  79 SE5       29.89S
OGDEN          CLOUDY    45  35  68 S6        29.90S
SALT LAKE CITY CLOUDY    45  37  73 E7        29.91S
TOOELE VALLEY  CLOUDY    41  34  75 S9        29.91S
WENDOVER       NOT AVBL
HEBER CITY     CLOUDY    32  30  93 CALM      29.92F
WEST JORDAN    CLOUDY    46  44  95 S8        29.92S

$$

UTZ011>015-024>027-261500-

CENTRAL/NORTHEAST UTAH

CITY           SKY/WX    TMP DP  RH WIND       PRES   REMARKS
PROVO AIRPORT  CLOUDY    40  33  76 SE9       29.94F WCI  34
MOAB/CANYONLAN SUNNY     45  33  63 NE3       29.91R
DELTA          PTSUNNY   36  32  87 E3        29.95S
PRICE          MOSUNNY   41  27  57 CALM      29.94R
ROOSEVELT      MOSUNNY   37  30  75 CALM      29.94R
VERNAL         CLOUDY    42  31  64 CALM      29.92R

$$

UTZ013>016-019>022-027-261500-

SOUTHERN UTAH

CITY           SKY/WX    TMP DP  RH WIND       PRES   REMARKS
BRYCE CANYON   MOSUNNY   27  19  72 CALM      29.99R
CEDAR CITY     SUNNY     32  24  72 NE6       29.95R WCI  26
MILFORD        MOSUNNY   33  25  72 S6        29.95R WCI  28
ST GEORGE      PTSUNNY   48  23  37 S6        29.93F
HANKSVILLE     MOSUNNY   41  23  48 NW3       29.96R
BLANDING       SUNNY     40  23  50 CALM      30.00S

$$

REGIONAL REPORTS     COLORADO/ARIZONA

CITY           SKY/WX    TMP DP  RH WIND       PRES   REMARKS
CRAIG, CO      CLOUDY    34  30  85 E3        29.93R
GRAND JUNCTION PTSUNNY   40  38  93 S6        29.93R
RIFLE, CO      CLOUDY    38  34  85 CALM      29.94R
MONTROSE, CO   SUNNY     39  32  76 SE3       29.96R
CORTEZ, CO     SUNNY     35  28  75 E3        29.94R
COLORADO CITY    N/A     37  25  60 CALM      29.98F
PAGE, AZ       SUNNY     50  21  32 SE5       29.92S
GRAND CANYON   MOSUNNY   32  16  51 E3        30.01R
KINGMAN, AZ    SUNNY     48  24  39 CALM      29.93R
FLAGSTAFF, AZ  MOSUNNY   32  18  56 CALM      30.00R

$$

REGIONAL REPORTS    NEVADA/IDAHO/WYOMING

CITY           SKY/WX    TMP DP  RH WIND       PRES   REMARKS
LAS VEGAS, NV  PTSUNNY   60  19  20 SW3       29.88R
ELY, NY        CLOUDY    36  27  69 S6        29.96S WCI  31
ELKO, NV       LGT RAIN  44  36  73 SW10      29.95R
POCATELLO, ID  CLOUDY    44  33  65 SW16      29.87R
BURLEY, ID     CLOUDY    43  36  76 SW9       29.87S
FORT BRIDGER,  CLOUDY    36  29  76 W12G18    29.90F WCI  28
EVANSTON, WY   CLOUDY    33  30  88 SW13      29.89F WCI  24
ROCK SPRINGS,  CLOUDY    34  29  82 SW12      29.87F WCI  25
KEMMERER, WY   FLURRIES  32  30  93 SW6       29.87F WCI  26

$$




USA.gov is the U.S. government's official web portal to all federal, state and local government web resources and services.